MMS 4

Last updated on Fri Jul 11 2025 00:02:36 GMT+0000 (Coordinated Universal Time)

1 40485U 15011D 25191.58335648 -.00001384 00000+0 00000+0 0 9994 2 40485 65.4075 354.7090 8689751 160.0071 325.7343 0.28429442 1381
UTC large
Height (km)
Speed (km/s)
/
Latitude / Longitude
Inclination (degrees)
Orbital Period (minutes)
Azimuth
Elevation
Range (km)
Doppler Factor

Next 0 passes for location: London (51.5072 / 0.1276)

Sorry there are no passes over London.